USTRANSCOM 7531


KNGU
Norfolk Naval Station (Chambers Field)
Norfolk, Virginia, US
BIKF
Keflavík International Airport
Reykjavík, , IS

Activity Log

Date Flight Route Aircraft Duration
01/01/2020 CMB7531 SBY J79 JFK J37 ALB J563 HO PORGY 5950N 6140N EPENI ELDIS B752 5h 38m

Route Details

Aircraft Information
Primary: Boeing 757-200SF
Backup: Not Available
Route Data
Distance: 2503nm
Sched. Duration: 6h 29m
Avg. Duration: 5h 38m (-91m)
Times Flown: 1
Recm'd Route: SBY J79 JFK J37 ALB J563 HO PORGY 5950N N6140 EPENI ELDIS ELDIS2M
Planned Altitude: 35,000ft
Origin Wx: KNGU 130159Z 24003KT 10SM SCT070 SCT300 27/22 A2980 RMK AO2 SLP090 T02670217 $
Dest. Wx: BIKF 130200Z 26005KT 9999 BKN014 OVC031 09/08 Q1008
Notes: USTRANSCOM CONTRACT FLIGHT

Financial History
Total Freight: 40,830lbs
Average Load: 40,830lbs/flt
Fuel Used: 40,586lbs
Avg. Fuel Used: 40,586lbs/flt
Fuel Expense: $38,557
Avg. Fuel Expense: $38,557
Avg. Fuel Cost: $0.95/lbs
Total Gross Income: $89,418
Pilot Pay: $99
Total Expenses: $9,709
Total Revenue: $40,593
Average Revenue: $89,417.70